Track STARLINK-2378 now! 10-day predictions STARLINK-2378 is classified as:
1 47916U 21021BJ 22183.50271985 .00000714 00000-0 66822-4 0 9996 2 47916 53.0551 184.8992 0001867 62.6729 297.4449 15.06395891 73414